Ankeny Regional Airport
Tuesday 11:55 PM
Temperature54° (73°/48°)
Dew Point52°
Relative Humidity94
%
Visibility10
mi
Pressure1020.0
mb
Wind Direction
Wind SpeedCalm
Precipitation Today0.00"

Last 30 Observations

Time PresWx Temp DP Feels RH% Vsby Pressure Ceiling Direction Speed 1h Precip
11:35 PM 10
mi
0.00"
11:15 PM 52° 10
mi
1020.0
mb
Calm 0.00"
10:55 PM 57° 54° 88
%
10
mi
1020.3
mb
Calm 0.00"
10:35 PM 57° 54° 88
%
10
mi
1020.0
mb
Calm 0.00"
10:15 PM 52° 10
mi
1020.0
mb
Calm 0.00"
9:55 PM 59° 54° 82
%
10
mi
1020.0
mb
Calm 0.00"
9:35 PM 59° 54° 82
%
10
mi
1019.7
mb
Calm 0.00"
9:15 PM 59° 55° 88
%
10
mi
1019.3
mb
Calm 0.00"
8:55 PM 61° 54° 77
%
10
mi
1019.3
mb
Calm 0.00"
8:35 PM 63° 55° 77
%
10
mi
1019.3
mb
Calm 0.00"
8:15 PM 68° 54° 60
%
10
mi
1019.3
mb
Calm 0.00"
7:55 PM 68° 54° 60
%
10
mi
1019.3
mb
Calm 0.00"
7:35 PM 70° 52° 53
%
10
mi
1019.3
mb
Calm 0.00"
7:15 PM 72° 52° 71°50
%
10
mi
1019.3
mb
Calm 0.00"
6:55 PM 72° 50° 71°46
%
10
mi
1019.3
mb
E
90°
3
mph
0.00"
6:35 PM 72° 50° 71°46
%
10
mi
1019.3
mb
E
100°
3
mph
0.00"
6:15 PM 72° 48° 71°43
%
10
mi
1019.7
mb
Calm 0.00"
5:55 PM -DZ 70° 52° 53
%
10
mi
1020.0
mb
Calm 0.00"
5:35 PM 72° 48° 71°43
%
10
mi
1020.0
mb
Calm 0.00"
5:15 PM 73° 48° 72°41
%
10
mi
1020.0
mb
E
80°
6
mph
0.00"
4:55 PM 72° 50° 71°46
%
10
mi
1020.3
mb
Variable 3
mph
0.00"
4:35 PM 73° 50° 72°44
%
10
mi
1020.3
mb
NE
40°
7
mph
0.00"
4:15 PM 73° 50° 72°44
%
10
mi
1020.3
mb
Variable 3
mph
0.00"
3:55 PM 72° 48° 71°43
%
10
mi
1020.7
mb
Calm 0.00"
3:35 PM 73° 50° 72°44
%
10
mi
1020.7
mb
ENE
70°
6
mph
0.00"
3:15 PM 73° 48° 72°41
%
10
mi
1021.0
mb
Calm 0.00"
2:55 PM 70° 50° 49
%
10
mi
1021.0
mb
5,500
ft
NE
50°
3
mph
0.00"
2:35 PM 72° 50° 71°46
%
10
mi
1021.3
mb
5,500
ft
NNE
30°
6
mph
0.00"
2:15 PM 73° 50° 72°44
%
10
mi
1021.3
mb
Calm 0.00"
1:55 PM 72° 50° 71°46
%
10
mi
1021.3
mb
5,000
ft
Variable 5
mph
0.00"